2023/08/08 00:00:00, 0.7,24.4
2023/08/08 00:10:00, 0.7,24.3
2023/08/08 00:20:00, 0.7,24.0
2023/08/08 00:30:00, 0.7,24.2
2023/08/08 00:40:00, 0.7,24.0
2023/08/08 00:50:00, 0.6,24.1
2023/08/08 01:00:00, 0.7,24.1
2023/08/08 01:10:00, 0.6,24.0
2023/08/08 01:20:00, 0.6,23.9
2023/08/08 01:30:00, 0.6,23.8
2023/08/08 01:40:00, 0.7,23.7
2023/08/08 01:50:00, 0.8,23.7
2023/08/08 02:00:00, 0.8,23.7
2023/08/08 02:10:00, 0.8,23.9
2023/08/08 02:20:00, 0.7,23.5
2023/08/08 02:30:00, 0.7,23.4
2023/08/08 02:40:00, 0.7,23.6
2023/08/08 02:50:00, 0.7,23.5
2023/08/08 03:00:00, 0.7,23.2
2023/08/08 03:10:00, 0.7,23.7
2023/08/08 03:20:00, 0.8,23.3
2023/08/08 03:30:00, 0.8,23.4
2023/08/08 03:40:00, 0.7,23.6
2023/08/08 03:50:00, 0.7,23.6
2023/08/08 04:00:00, 0.7,23.5
2023/08/08 04:10:00, 0.7,23.2
2023/08/08 04:20:00, 0.7,23.3
2023/08/08 04:30:00, 0.7,23.1
2023/08/08 04:40:00, 0.8,23.2
2023/08/08 04:50:00, 0.8,23.2
2023/08/08 05:00:00, 0.7,23.0
2023/08/08 05:10:00, 0.7,23.0
2023/08/08 05:20:00, 0.7,23.0
2023/08/08 05:30:00, 0.7,22.9
2023/08/08 05:40:00, 0.7,23.0
2023/08/08 05:50:00, 0.7,23.2
2023/08/08 06:00:00, 0.7,23.8
2023/08/08 06:10:00, 0.7,23.9
2023/08/08 06:20:00, 0.7,24.4
2023/08/08 06:30:00, 0.7,32.8
2023/08/08 06:40:00, 0.6,35.4
2023/08/08 06:50:00, 0.5,37.7
2023/08/08 07:00:00, 0.5,30.8
2023/08/08 07:10:00, 0.5,31.1
2023/08/08 07:20:00, 0.5,28.6
2023/08/08 07:30:00, 0.5,31.3
2023/08/08 07:40:00, 0.5,31.3
2023/08/08 07:50:00, 0.7,31.9
2023/08/08 08:00:00, 0.6,32.8
2023/08/08 08:10:00, 0.7,32.9
2023/08/08 08:20:00, 0.7,32.6
2023/08/08 08:30:00, 0.7,32.4
2023/08/08 08:40:00, 0.7,31.8
2023/08/08 08:50:00, 0.7,32.1
2023/08/08 09:00:00, 0.7,32.9
2023/08/08 09:10:00, 0.7,32.6
2023/08/08 09:20:00, 0.7,32.9
2023/08/08 09:30:00, 0.7,32.4
2023/08/08 09:40:00, 0.7,33.2
2023/08/08 09:50:00, 0.7,33.3
2023/08/08 10:00:00, 0.7,33.8
2023/08/08 10:10:00, 0.7,32.5
2023/08/08 10:20:00, 0.7,33.9
2023/08/08 10:30:00, 0.8,33.1
2023/08/08 10:40:00, 0.7,33.3
2023/08/08 10:50:00, 0.7,34.0
2023/08/08 11:00:00, 0.7,34.9
2023/08/08 11:10:00, 0.7,35.7
2023/08/08 11:20:00, 0.8,35.1
2023/08/08 11:30:00, 0.8,36.0
2023/08/08 11:40:00, 0.6,36.0
2023/08/08 11:50:00, 0.8,35.1
2023/08/08 12:00:00, 0.7,34.9
2023/08/08 12:10:00, 0.7,34.8
2023/08/08 12:20:00, 0.7,34.2
2023/08/08 12:30:00, 0.8,35.7
2023/08/08 12:40:00, 0.7,35.2
2023/08/08 12:50:00, 0.7,33.6
2023/08/08 13:00:00, 0.7,32.6
2023/08/08 13:10:00, 0.8,33.0
2023/08/08 13:20:00, 0.7,32.8
2023/08/08 13:30:00, 0.7,34.2
2023/08/08 13:40:00, 0.8,34.9
2023/08/08 13:50:00, 0.6,33.5
2023/08/08 14:00:00, 0.7,34.3
2023/08/08 14:10:00, 0.7,34.0
2023/08/08 14:20:00, 0.7,33.4
2023/08/08 14:30:00, 0.7,33.2
2023/08/08 14:40:00, 0.7,33.4
2023/08/08 14:50:00, 0.8,33.6
2023/08/08 15:00:00, 0.7,33.3
2023/08/08 15:10:00, 0.7,33.2
2023/08/08 15:20:00, 0.6,33.2
2023/08/08 15:30:00, 0.7,33.0
2023/08/08 15:40:00, 0.8,33.0
2023/08/08 15:50:00, 0.7,32.6
2023/08/08 16:00:00, 0.7,32.5
2023/08/08 16:10:00, 0.7,32.4
2023/08/08 16:20:00, 0.7,32.6
2023/08/08 16:30:00, 0.7,32.3
2023/08/08 16:40:00, 0.7,31.8
2023/08/08 16:50:00, 0.7,31.6
2023/08/08 17:00:00, 0.7,31.4
2023/08/08 17:10:00, 0.8,31.1
2023/08/08 17:20:00, 0.6,31.0
2023/08/08 17:30:00, 0.5,30.7
2023/08/08 17:40:00, 0.5,30.2
2023/08/08 17:50:00, 0.5,29.1
2023/08/08 18:00:00, 0.5,28.1
2023/08/08 18:10:00, 0.6,27.4
2023/08/08 18:20:00, 0.6,27.1
2023/08/08 18:30:00, 0.6,27.1
2023/08/08 18:40:00, 0.6,27.0
2023/08/08 18:50:00, 0.5,27.0
2023/08/08 19:00:00, 0.7,26.9
2023/08/08 19:10:00, 0.7,26.8
2023/08/08 19:20:00, 0.7,26.0
2023/08/08 19:30:00, 0.7,25.8
2023/08/08 19:40:00, 0.7,25.7
2023/08/08 19:50:00, 0.6,25.6
2023/08/08 20:00:00, 0.6,25.5
2023/08/08 20:10:00, 0.6,25.5
2023/08/08 20:20:00, 0.6,25.3
2023/08/08 20:30:00, 0.6,25.3
2023/08/08 20:40:00, 0.7,25.3
2023/08/08 20:50:00, 0.7,25.4
2023/08/08 21:00:00, 0.7,25.2
2023/08/08 21:10:00, 0.7,25.2
2023/08/08 21:20:00, 0.7,25.1
2023/08/08 21:30:00, 0.7,25.2
2023/08/08 21:40:00, 0.6,25.3
2023/08/08 21:50:00, 0.6,25.3
2023/08/08 22:00:00, 0.6,25.3
2023/08/08 22:10:00, 0.7,25.6
2023/08/08 22:20:00, 0.7,25.3
2023/08/08 22:30:00, 0.6,25.2
2023/08/08 22:40:00, 0.6,25.0
2023/08/08 22:50:00, 0.6,24.9
2023/08/08 23:00:00, 0.6,25.0
2023/08/08 23:10:00, 0.6,24.8
2023/08/08 23:20:00, 0.6,25.0
2023/08/08 23:30:00, 0.7,25.1
2023/08/08 23:40:00, 0.7,24.7
2023/08/08 23:50:00, 0.6,25.6
